Overview Statistics Trail Chart Weather Telemetry Raw packets
 

This is the latest recevied weather packets stored in our database for station/object LU3GHF-13. If no packets are shown the sender has not sent any weather packets the latest 10 day(s).

<< 45 46 47 48 49 50 51 >>
Time Temp. Humidity Pressure Rain* Wind** Luminosity Snow
1787852845 33.89° C 58% 992.7 hPa - - - -
1787850372 32.78° C 59% 993.4 hPa - - - -
1787848522 32.78° C 59% 994 hPa - - - -
1787847905 31.11° C 64% 994.5 hPa - - - -
1787844732 30° C 65% 995.4 hPa - - - -
1787844110 29.44° C 66% 995.6 hPa - - - -
1787843451 30° C 66% 995.6 hPa - - - -
1787842823 28.89° C 67% 995.9 hPa - - - -
1787842173 28.89° C 69% 996 hPa - - - -
1787841540 28.33° C 70% 996.3 hPa - - - -
1787836504 25° C 78% 997.5 hPa - - - -
1787835244 24.44° C 78% 997.4 hPa - - - -
1787833316 23.89° C 82% 997.3 hPa - - - -
1787832658 23.33° C 82% 997.2 hPa - - - -
1787832035 23.33° C 84% 997.2 hPa - - - -
1787831382 22.78° C 85% 997.2 hPa - - - -
1787830759 22.22° C 86% 997.3 hPa - - - -
1787830115 22.22° C 87% 997.1 hPa - - - -
1787829500 22.22° C 87% 997 hPa - - - -
1787828251 21.67° C 88% 996.9 hPa - - - -
1787826294 21.67° C 90% 996.7 hPa - - - -
1787825676 21.67° C 90% 996.7 hPa - - - -
1787824368 21.67° C 90% 996.6 hPa - - - -
1787823712 21.67° C 89% 996.5 hPa - - - -
1787823098 21.67° C 89% 996.5 hPa - - - -

* Rain since midnight (hover to see other rain measurements)
** Current wind speed in m/s (hover to see current wind gust speed)